Probability
0 0 0 0 0 0 0 0 0 0 0 0 0 0 0 0 0 0 0 0 0 0 0 0 0 0 0 0 0 0 0 0 0 0 0 0 0 0
0 0 0 0 0 0 0 0 0 0 0 0 0 0 0 0 0 0 0 0 0 0 0 0 0 0 0 0 0 0 0 0 0 0 0 0 0 0
0 0 0 0 0 0 0 0 0 0 0 0 0 0 0 0 0 0 0 0 0 0 0 0 0 0 0 0 0 0 0 0 0 0 0 0 0 0
0 0 0 0 0 0 0 0 0 0 0 0 0 0 0 0 0 0 0 0 0 0 0 0 0 0 0 0 0 0 0 0 0 0 0 0 0 0
0 0 0 0 0 0 0 0 0 0 0 0 0 0 0 0 0 0 0 0 0 0 0 0 0 0 0 0 0 0 0 0 0 0 0 0 0 0
0 0 0 0 0 0 0 0 0 0 0 0 0 0 0 0 0 0 0 0 0 0 0 0 0 0 0 0 0 0 0 0 0 0 0 0 0 0
0 0 0 0 0 0 0 0 0 0 0 0 0 0 0 0 0 0 0 0 0 0 0 0 0 0 0 0 0 0 0 0 0 0 0 0 0 0
0 0 0 0 0 0 0 0 0 0 0 0 0 0 0 0 0 0 0 0 0 0 0 0 0 0 0 0 0 0 0 0 0 0 0 0 0 0
0 0 0 0 0 0 0 0 0 0 0 0 0 0 0 0 0 0 0 0 0 0 0 0 0 0 0 0 0 0 0 0 0 0 0 0 0 0
0 0 0 0 0 0 0 0 0 0 0 0 0 0 0 0 0 0 0 0 0 0 0 0 0 0 0 0 0 0 0 0 0 0 0 0 0 0
0 0 0 0 0 0 0 0 0 0 0 0 0 0 0 0 0 0 0 0 0 0 0 0 0 0 0 0 0 0 0 0 0 0 0 0 0 0
0 0 0 0 0 0 0 0 0 0 0 0 0 0 0 0 0 0 0 0 0 0 0 0 0 0 0 0 0 0 0 0 0 0 0 0 0 0
0 0 0 0 0 0 0 0 0 0 0 0 0 0 0 0 0 0 0 0 0 0 0 0 0 0 0 0 0 0 0 0 0 0 0 0 0 0
0 0 0 0 0 0 0 0 0 0 0 0 0 0 0 0 0 0 0 0 0 0 0 0 0 0 0 0 0 0 0 0 0 0 0 0 0 0
0 0 0 0 0 0 0 0 0 0 0 0 0 0 0 0 0 0 0 0 0 0 0 0 0 0 0 0 0 0 0 0 0 0 0 0 0 0
0 0 0 0 0 0 0 0 0 0 0 0 0 0 0 0 0 0 0 0 0 0 0 0 0 0 0 0 0 0 0 0 0 0 0 0 0 0
0 0 0 0 0 0 0 0 0 0 0 0 0 0 0 0 0 0 0 0 0 0 0 0 0 0 0 0 0 0 0 0 0 0 0 0 0 0
0 0 0 0 0 0 0 0 0 0 0 0 0 0 0 0 0 0 0 0 0 0 0 0 0 0 0 0 0 0 0 0 0 0 0 0 0 0
0 0 0 0 0 0 0 0 0 0 0 0 0 0 0 0 0 0 0 0 0 0 0 0 0 0 0 0 0 0 0 0 0 0 0 0 0 0
0 0 0 0 0 0 0 0 0 0 0 0 0 0 0 0 0 0 0 0 0 0 0 0 0 0 0 0 0 0 0 0 0 0 0 0 0 0
0 0 0 0 0 0 0 0 0 0 0 0 0 0 0 0 0 0 0 0 0 0 0 0 0 0 0 0 0 0 0 0 0 0 0 0 0 0
0 0 0 0 0 0 0 0 0 0 0 0 0 0 0 0 0 0 0 0 0 0 0 0 0 0 0 0 0 0 0 0 0 0 0 0 0 0
0 0 0 0 0 0 0 0 0 0 0 0 0 0 0 0 0 0 0 0 0 0 0 0 0 0 0 0 0 0 0 0 0 0 0 0 0 0
Wind_Speed
4 5 4 3 4 4 3 3 4 3 2 2 2 1 1 2 4 4 5 8 10 10 10 9 8 7 6 6 6 5 4 4 3 3 5 6 7 8
3 3 3 2 3 3 3 3 3 4 3 2 2 2 2 2 3 3 5 7 9 9 10 9 8 8 7 7 6 6 5 5 6 6 6 7 8 8
2 2 2 2 2 2 2 3 3 3 3 2 1 1 2 2 2 1 2 3 3 7 8 9 8 8 8 8 7 7 7 7 8 8 9 9 9 9
2 2 1 1 2 2 3 3 3 3 3 2 1 1 1 1 1 0 1 2 2 4 6 7 8 8 8 8 8 8 8 8 8 9 10 11 11 11
2 2 2 2 2 2 3 3 2 3 2 2 1 1 1 1 1 1 1 1 1 2 3 3 4 6 7 7 7 8 8 8 9 9 10 12 12 12
1 2 2 3 3 3 3 3 3 3 2 2 1 1 1 1 0 1 1 2 2 2 3 3 3 3 2 3 4 5 6 7 8 9 10 10 11 12
1 1 2 4 5 4 3 3 4 3 2 2 1 1 0 0 0 1 1 2 2 2 3 3 3 4 4 5 5 4 3 4 5 6 7 8 9 10
2 1 1 1 4 6 7 7 6 4 3 2 1 1 1 1 1 1 2 2 2 2 2 3 3 4 4 4 7 9 9 8 8 7 6 6 5 6
3 2 2 2 3 4 6 7 5 6 5 4 3 1 1 1 2 2 2 3 3 1 2 3 3 4 4 6 10 11 11 11 11 10 10 10 9 9
5 3 3 2 2 4 5 5 5 4 4 4 3 2 1 1 2 3 4 5 4 3 2 3 2 3 3 5 11 12 12 12 11 11 12 12 11 11
5 5 4 3 3 5 6 6 6 4 6 8 8 7 8 7 5 4 3 4 3 3 3 3 2 2 3 4 7 12 13 13 14 15 15 13 12 10
4 5 7 6 5 5 4 5 6 4 4 5 6 8 7 9 9 4 3 3 3 2 3 2 2 2 3 3 5 6 7 11 14 16 17 16 13 8
3 4 4 7 6 6 5 3 5 5 5 5 5 5 5 6 6 6 5 3 4 3 1 2 2 2 3 2 3 5 6 6 7 8 13 16 16 11
3 3 3 6 7 6 4 6 9 7 5 5 5 4 4 5 5 7 8 9 7 6 3 2 3 2 3 3 2 3 5 6 6 7 7 10 11 12
3 5 6 8 8 6 8 8 6 4 4 5 4 3 3 3 3 4 6 7 9 9 8 5 4 3 3 3 2 2 2 4 5 6 6 7 7 7
4 6 9 10 7 7 7 6 4 4 4 4 4 3 3 3 3 3 3 3 5 6 9 10 8 7 5 5 4 3 3 3 3 4 4 5 6 6
3 4 4 4 5 5 5 5 4 4 4 3 4 4 4 4 3 3 3 4 4 3 4 6 8 9 10 6 4 4 3 3 3 2 3 4 5 6
6 6 6 6 5 5 5 5 4 4 3 4 4 4 4 5 5 4 4 5 5 3 3 2 2 2 4 7 8 3 3 2 3 3 2 3 4 5
7 6 6 5 5 5 4 4 4 3 3 4 4 4 4 5 4 4 4 4 4 3 3 2 2 2 2 3 4 8 3 2 2 3 3 2 2 4
6 5 5 5 5 5 4 4 4 4 4 4 4 4 4 4 4 4 3 3 3 3 3 3 3 3 2 3 3 3 7 4 2 2 2 2 2 3
4 5 4 4 4 4 4 4 4 4 4 4 4 4 3 4 4 3 3 4 3 2 2 2 2 2 2 3 4 2 3 6 5 2 2 2 3 4
3 3 3 4 4 4 4 4 4 4 4 4 3 3 3 3 4 4 3 3 2 2 2 2 3 2 3 3 3 2 2 4 5 5 6 4 1 2
2 2 2 3 3 3 3 4 4 3 3 3 3 3 3 3 3 3 3 3 3 3 2 2 3 3 3 3 2 2 2 3 3 4 4 7 6 4
Wind_Direction
178 183 187 187 185 187 176 167 164 190 248 272 286 299 273 242 239 215 216 225 217 212 211 213 218 223 233 236 238 242 248 254 254 260 270 284 294 300
152 163 170 166 177 179 178 176 171 168 212 247 255 276 299 288 237 214 218 225 221 214 212 214 219 224 233 239 241 242 246 248 251 257 266 274 281 288
127 144 153 157 166 169 163 164 169 159 194 249 261 289 304 313 330 242 216 206 214 217 214 215 220 226 233 239 241 243 246 250 254 260 267 271 275 279
149 140 162 164 175 169 167 177 175 172 176 216 269 304 305 319 325 278 196 191 191 213 215 220 225 230 235 238 240 244 247 251 255 260 267 272 276 280
174 175 200 182 204 188 180 184 175 171 170 183 238 282 311 343 28 52 75 65 154 175 198 224 237 242 244 242 243 247 253 258 261 262 265 271 276 279
212 203 199 201 215 199 185 178 158 149 147 167 213 253 279 312 96 101 83 64 54 60 63 58 46 35 352 293 266 261 263 268 269 270 270 270 273 277
292 242 224 215 211 188 168 157 145 135 135 152 170 167 229 179 151 144 116 99 62 47 65 48 48 51 41 33 30 20 355 325 309 299 291 284 281 282
359 336 284 202 179 159 148 146 144 144 149 145 144 154 188 199 148 118 124 118 91 33 80 61 51 58 46 42 44 50 48 45 40 35 27 12 354 337
20 8 22 80 109 114 118 114 110 121 132 142 137 146 155 179 146 108 93 91 92 47 85 77 50 60 44 44 49 53 52 50 48 47 45 41 35 29
28 28 46 48 70 112 113 103 87 75 92 96 105 103 111 117 124 119 113 98 84 43 56 88 50 55 44 38 40 49 49 49 48 48 46 43 40 40
25 32 45 47 54 114 119 114 99 81 80 88 84 81 84 90 102 100 95 94 82 43 29 91 77 70 52 35 32 43 48 48 47 47 46 43 43 44
21 23 30 38 63 103 119 124 119 109 99 83 67 59 60 59 61 75 108 109 109 82 23 82 83 94 90 42 32 32 39 41 47 48 48 45 41 46
22 16 9 29 62 92 104 116 132 125 106 95 82 68 60 56 51 51 57 90 104 91 43 92 98 80 95 92 44 33 41 40 45 47 48 46 45 46
17 5 7 38 65 85 92 108 116 111 103 95 86 76 70 67 64 65 68 67 67 73 42 68 97 96 103 88 70 36 43 40 46 50 46 38 39 40
26 41 53 57 62 63 76 94 98 101 105 100 96 85 75 81 81 76 68 71 63 50 35 36 73 80 80 91 80 30 48 40 39 51 50 45 37 29
35 52 63 66 64 62 62 64 67 88 104 106 104 88 73 75 68 67 73 63 62 44 35 41 55 74 78 67 75 57 42 45 26 45 60 53 41 33
40 48 51 54 58 57 59 60 62 74 84 86 97 95 86 78 60 48 61 64 77 75 58 48 60 70 66 62 65 51 46 42 24 20 51 53 37 26
57 55 53 53 58 61 68 68 61 65 73 89 92 93 94 90 81 65 69 83 91 86 78 33 26 62 70 60 41 45 39 28 15 24 38 46 25 11
56 53 51 51 53 56 60 68 64 54 68 83 89 90 92 91 91 88 85 84 82 73 46 21 30 92 100 93 42 31 35 20 22 32 30 32 6 343
45 48 47 46 50 54 55 60 65 64 67 74 78 80 89 96 95 91 86 91 88 73 52 36 36 46 89 119 107 33 21 29 28 19 358 348 329 325
39 42 39 40 44 48 50 54 62 66 69 74 76 80 87 95 95 91 90 88 82 74 64 27 351 13 73 82 84 48 7 16 39 40 359 7 0 357
39 41 36 39 41 44 48 55 61 63 65 70 77 81 84 92 105 106 102 97 87 91 83 36 19 54 62 85 94 69 6 356 8 31 43 56 28 348
45 46 43 39 39 42 50 62 70 68 70 80 87 90 96 96 98 102 103 106 113 105 90 63 41 51 59 73 87 66 33 7 355 358 348 349 357 342